FW3961 Weather Reports


Display with metric or nautical units.
time (UTC)temp
F
wind
direction
speed
MPH
gust
MPH
rain 1hr
in
rain 24hr
in
rain mn
in
humidity
%
barometer
mb
20260505005910 73 196 2.0 5.0 0.00 0.00 0.00 65 1012.3
20260505005410 73 238 1.0 3.0 0.00 0.00 0.00 65 1012.4
20260505004908 73 271 1.0 3.0 0.00 0.00 0.00 66 1012.5
20260505004406 73 187 1.0 3.0 0.00 0.00 0.00 65 1012.5
20260505003906 73 138 1.0 3.0 0.00 0.00 0.00 65 1012.4
20260505003405 73 209 1.0 4.0 0.00 0.00 0.00 65 1012.4
20260505002906 74 221 1.0 4.0 0.00 0.00 0.00 64 1012.4
20260505002405 74 169 1.0 2.0 0.00 0.00 0.00 65 1012.4
20260505001906 73 164 1.0 4.0 0.00 0.00 0.00 68 1012.4
20260505001405 73 164 1.0 4.0 0.00 0.00 0.00 67 1012.4
20260505000915 73 154 1.0 5.0 0.00 0.00 0.00 64 1012.5
20260505000908 73 197 1.0 4.0 0.00 0.00 0.00 67 1012.4
20260504235905 73 161 1.0 5.0 0.00 0.00 0.00 66 1012.6
20260504235401 73 194 1.0 4.0 0.00 0.00 0.00 66 1012.6
20260504234902 73 169 1.0 3.0 0.00 0.00 0.00 65 1012.6
20260504234412 72 154 1.0 5.0 0.00 0.00 0.00 68 1012.8
20260504234401 73 209 1.0 3.0 0.00 0.00 0.00 64 1012.7
20260504233902 73 204 1.0 4.0 0.00 0.00 0.00 65 1012.7
20260504232904 72 150 1.0 5.0 0.00 0.00 0.00 66 1012.8
20260504232405 72 238 1.0 7.0 0.00 0.00 0.00 67 1013.0
20260504231905 72 119 2.0 7.0 0.00 0.00 0.00 66 1013.1
20260504231401 72 149 1.0 6.0 0.00 0.00 0.00 66 1013.0
20260504230852 71 128 2.0 6.0 0.00 0.00 0.00 66 1013.0
20260504230346 71 124 2.0 5.0 0.00 0.00 0.00 68 1013.2
20260504225843 70 132 2.0 5.0 0.00 0.00 0.00 69 1013.1
20260504225836 70 138 2.0 7.0 0.00 0.00 0.00 68 1013.3
20260504224827 70 123 2.0 7.0 0.00 0.00 0.00 69 1013.3
20260504224321 70 121 2.0 7.0 0.00 0.00 0.00 69 1013.4
20260504223816 71 124 2.0 4.0 0.00 0.00 0.00 68 1013.5
20260504223309 70 150 2.0 7.0 0.00 0.00 0.00 70 1013.5
20260504222804 70 130 2.0 7.0 0.00 0.00 0.00 69 1013.5
20260504222257 70 132 2.0 7.0 0.00 0.00 0.00 69 1013.6
20260504221752 71 131 1.0 7.0 0.00 0.00 0.00 67 1013.7
20260504221245 71 132 1.0 4.0 0.00 0.00 0.00 69 1013.6
20260504220739 70 132 2.0 5.0 0.00 0.00 0.00 68 1013.8
20260504220237 70 119 2.0 7.0 0.00 0.00 0.00 67 1013.8
20260504220230 70 130 2.0 7.0 0.00 0.00 0.00 67 1013.9
20260504215221 70 157 1.0 4.0 0.00 0.00 0.00 70 1014.0
20260504214717 69 221 2.0 5.0 0.00 0.00 0.00 69 1014.0
20260504214211 69 132 2.0 5.0 0.00 0.00 0.00 68 1014.1
20260504213704 69 135 2.0 5.0 0.00 0.00 0.00 70 1014.1
20260504213202 69 128 2.0 4.0 0.00 0.00 0.00 71 1014.2
20260504213155 68 126 2.0 4.0 0.00 0.00 0.00 69 1014.2
20260504212146 68 135 2.0 5.0 0.00 0.00 0.00 70 1014.2
20260504211640 68 139 2.0 5.0 0.00 0.00 0.00 70 1014.3
20260504211134 69 148 1.0 4.0 0.00 0.00 0.00 70 1014.6
20260504210627 68 137 1.0 4.0 0.00 0.00 0.00 71 1014.6
20260504210124 67 136 2.0 8.0 0.00 0.00 0.00 71 1014.6
20260504205615 67 139 2.0 8.0 0.00 0.00 0.00 71 1014.8
20260504205109 67 159 1.0 5.0 0.00 0.00 0.00 72 1014.7
20260504204604 66 150 2.0 7.0 0.00 0.00 0.00 73 1014.7
20260504204058 65 134 2.0 7.0 0.00 0.00 0.00 74 1014.8
20260504203554 65 149 2.0 4.0 0.00 0.00 0.00 75 1014.9
20260504203045 65 129 2.0 5.0 0.00 0.00 0.00 73 1014.9
20260504202540 65 132 2.0 5.0 0.00 0.00 0.00 72 1014.9
20260504202033 66 127 1.0 4.0 0.00 0.00 0.00 73 1014.9
20260504201528 65 140 1.0 3.0 0.00 0.00 0.00 75 1014.8
20260504201021 64 145 2.0 4.0 0.00 0.00 0.00 76 1014.8
20260504200516 63 140 1.0 5.0 0.00 0.00 0.00 74 1014.9
20260504200010 64 140 1.0 5.0 0.00 0.00 0.00 74 1014.9
20260504200002 63 190 1.0 4.0 0.00 0.00 0.00 78 1014.9
20260504195838 64 136 1.0 5.0 0.00 0.00 0.00 76 1014.9
20260504194452 62 117 1.0 4.0 0.00 0.00 0.00 78 1014.8
20260504193950 61 140 2.0 6.0 0.00 0.00 0.00 78 1014.8
20260504193946 61 145 2.0 5.0 0.00 0.00 0.00 78 1014.8
20260504192933 61 134 2.0 6.0 0.00 0.00 0.00 77 1014.8
20260504192427 61 171 1.0 4.0 0.00 0.00 0.00 78 1014.9
20260504191922 61 138 1.0 6.0 0.00 0.00 0.00 78 1015.0
20260504191423 60 238 1.0 6.0 0.00 0.00 0.00 81 1015.0
20260504190921 60 132 2.0 7.0 0.00 0.00 0.00 80 1015.1
20260504190422 59 109 2.0 7.0 0.00 0.00 0.00 80 1015.1
20260504185921 59 165 1.0 4.0 0.00 0.00 0.00 81 1015.1
20260504185420 59 146 1.0 4.0 0.00 0.00 0.00 81 1015.2
20260504184921 59 217 1.0 6.0 0.00 0.00 0.00 81 1015.2
20260504184421 59 140 1.0 6.0 0.00 0.00 0.00 81 1015.2
20260504183921 59 167 1.0 4.0 0.00 0.00 0.00 81 1015.1
20260504183419 59 156 1.0 4.0 0.00 0.00 0.00 82 1015.2
20260504182922 59 254 1.0 4.0 0.00 0.00 0.00 82 1015.1
20260504182419 59 146 1.0 3.0 0.00 0.00 0.00 82 1015.1
20260504181918 58 331 1.0 5.0 0.00 0.00 0.00 83 1015.1
20260504181419 58 131 2.0 5.0 0.00 0.00 0.00 82 1015.0
20260504180916 57 218 2.0 5.0 0.00 0.00 0.00 82 1015.0
20260504180415 58 119 2.0 5.0 0.00 0.00 0.00 82 1015.0
20260504175916 58 147 1.0 5.0 0.00 0.00 0.00 82 1015.0
20260504175409 58 159 1.0 4.0 0.00 0.00 0.00 83 1015.0
20260504174905 58 143 2.0 5.0 0.00 0.00 0.00 82 1015.0
20260504174400 58 125 1.0 5.0 0.00 0.00 0.00 82 1014.9
20260504173852 58 142 1.0 3.0 0.00 0.00 0.00 83 1015.0
20260504173726 57 153 1.0 5.0 0.00 0.00 0.00 84 1014.9
20260504173617 57 197 1.0 3.0 0.00 0.00 0.00 83 1014.9
20260504172345 56 142 3.0 7.0 0.00 0.00 0.00 84 1014.9
20260504171847 57 123 1.0 3.0 0.00 0.00 0.00 84 1015.0
20260504171843 56 137 2.0 7.0 0.00 0.00 0.00 83 1014.9
20260504170842 57 99 1.0 4.0 0.00 0.00 0.00 84 1015.0
20260504170341 57 128 1.0 4.0 0.00 0.00 0.00 84 1015.0
20260504160341 55 132 1.0 5.0 0.00 0.00 0.00 86 1015.0
20260504160336 55 136 2.0 5.0 0.00 0.00 0.00 86 1015.1
20260504150839 54 142 1.0 7.0 0.00 0.00 0.00 88 1014.6
20260504150340 54 146 1.0 7.0 0.00 0.00 0.00 88 1014.7
20260504141240 53 118 1.0 3.0 0.00 0.00 0.00 90 1014.2
20260504140734 53 126 1.0 3.0 0.00 0.00 0.00 90 1014.1
20260504140228 53 126 2.0 4.0 0.00 0.00 0.00 90 1014.1
20260504130622 52 242 3.0 8.0 0.00 0.00 0.00 91 1013.1
20260504130116 52 136 3.0 8.0 0.00 0.00 0.00 91 1013.1
20260504110516 52 134 4.0 9.0 0.00 0.00 0.00 91 1012.4
20260504110512 52 136 5.0 9.0 0.00 0.00 0.00 91 1012.3
20260504081938 56 165 2.0 4.0 0.00 0.00 0.00 82 1011.2
20260504081438 57 166 1.0 4.0 0.00 0.00 0.00 80 1011.0
20260504080937 57 176 1.0 3.0 0.00 0.00 0.00 79 1011.0
20260504080436 58 184 1.0 2.0 0.00 0.00 0.00 78 1010.9
20260504070404 64 296 0.0 0.0 0.00 0.00 0.00 69 1010.3
20260504050649 74 299 0.0 1.0 0.00 0.00 0.00 47 1009.2
20260504050142 74 296 0.0 3.0 0.00 0.00 0.00 47 1009.0
20260504045635 74 296 0.0 4.0 0.00 0.00 0.00 46 1009.0
20260504045131 74 293 0.0 4.0 0.00 0.00 0.00 46 1009.0
20260504044624 75 326 0.0 2.0 0.00 0.00 0.00 46 1009.0
20260504044118 75 327 0.0 5.0 0.00 0.00 0.00 46 1008.8
20260504043612 75 302 0.0 5.0 0.00 0.00 0.00 46 1008.8
20260504043107 75 296 0.0 2.0 0.00 0.00 0.00 46 1008.8
20260504042600 75 296 0.0 2.0 0.00 0.00 0.00 45 1008.7
20260504042054 76 304 0.0 2.0 0.00 0.00 0.00 46 1008.6
20260504042050 76 286 0.0 2.0 0.00 0.00 0.00 47 1008.7
20260504041042 77 286 0.0 2.0 0.00 0.00 0.00 46 1008.5
20260504040537 77 284 0.0 3.0 0.00 0.00 0.00 46 1008.4
20260504040030 78 355 0.0 3.0 0.00 0.00 0.00 46 1008.5
20260504035524 78 336 0.0 2.0 0.00 0.00 0.00 46 1008.5
20260504035017 78 69 0.0 6.0 0.00 0.00 0.00 45 1008.5
20260504034512 79 71 1.0 6.0 0.00 0.00 0.00 44 1008.5
20260504034007 79 293 1.0 4.0 0.00 0.00 0.00 44 1008.3
20260504034002 80 261 0.0 3.0 0.00 0.00 0.00 44 1008.4
20260504032954 80 262 1.0 3.0 0.00 0.00 0.00 43 1008.3
20260504032449 80 250 1.0 3.0 0.00 0.00 0.00 43 1008.3
20260504031943 81 300 0.0 3.0 0.00 0.00 0.00 42 1008.2
20260504031435 82 300 1.0 3.0 0.00 0.00 0.00 41 1008.2
20260504030929 82 315 1.0 2.0 0.00 0.00 0.00 40 1008.1
20260504030423 83 346 0.0 2.0 0.00 0.00 0.00 39 1008.1
20260504030419 83 346 0.0 0.0 0.00 0.00 0.00 42 1008.1
20260504025416 84 346 0.0 1.0 0.00 0.00 0.00 41 1008.1
20260504024916 84 346 0.0 1.0 0.00 0.00 0.00 41 1008.1
20260504024413 84 346 0.0 1.0 0.00 0.00 0.00 39 1008.1
20260504023915 85 346 0.0 1.0 0.00 0.00 0.00 39 1008.1
20260504023413 85 346 0.0 1.0 0.00 0.00 0.00 39 1008.1
20260504022916 85 346 0.0 3.0 0.00 0.00 0.00 38 1008.2
20260504022414 85 346 0.0 3.0 0.00 0.00 0.00 38 1008.2
20260504021914 86 0 0.0 2.0 0.00 0.00 0.00 38 1008.2
20260504021413 86 0 1.0 3.0 0.00 0.00 0.00 37 1008.1
20260504020914 86 5 1.0 3.0 0.00 0.00 0.00 37 1008.2
20260504020414 86 256 1.0 2.0 0.00 0.00 0.00 36 1008.1
20260504015910 87 223 1.0 2.0 0.00 0.00 0.00 37 1008.1
20260504015409 87 247 1.0 3.0 0.00 0.00 0.00 35 1008.2
20260504014911 87 245 1.0 3.0 0.00 0.00 0.00 35 1008.2
20260504014410 87 44 0.0 2.0 0.00 0.00 0.00 35 1008.2
20260504014143 88 238 1.0 3.0 0.00 0.00 0.00 35 1008.2
20260504013410 88 284 1.0 3.0 0.00 0.00 0.00 36 1008.2
20260504012910 88 255 1.0 4.0 0.00 0.00 0.00 35 1008.2
20260504012410 88 248 1.0 4.0 0.00 0.00 0.00 33 1008.3
20260504011910 89 242 0.0 2.0 0.00 0.00 0.00 34 1008.4
20260504011405 89 296 1.0 3.0 0.00 0.00 0.00 35 1008.3
20260504010905 89 296 1.0 3.0 0.00 0.00 0.00 33 1008.3
20260504010404 89 275 1.0 3.0 0.00 0.00 0.00 32 1008.3